570  
NZUS93 KARX 241310  
HRRWXR  
 
CURRENT HOURLY OBSERVATIONS ACROSS  
MUCH OF THE UPPER MISSISSIPPI VALLEY  
NATIONAL WEATHER SERVICE LA CROSSE WI  
700 AM CST MON FEB 24 2020  
 
   
..SOUTHEAST MINNESOTA
 
 
 
CITY SKY/WX TMP DP RH WIND PRES REMARKS  
ROCHESTER FAIR 19 18 95 N9 29.95S FOG WCI 8  
ROCHESTER/MAYO FAIR 24 23 96 CALM 29.97S  
WINONA FAIR 21 21 100 NW3 29.99S  
AUSTIN FAIR 21 21 100 NE3 29.94F  
ALBERT LEA FAIR N/A N/A N/A N6 29.94F  
DODGE CENTER FAIR 21 19 93 N5 29.95S WCI 15  
PRESTON FAIR 21 20 94 N7 29.94F WCI 13  
OWATONNA FAIR 18 16 93 CALM 29.96S FOG  
FARIBAULT N/A 12 10 92 CALM 29.98S  

 
   
..ELSEWHERE IN MINNESOTA
 
 
 
CITY SKY/WX TMP DP RH WIND PRES REMARKS  
MINNEAPOLIS FAIR 25 21 85 NW5 29.99F WCI 19  
INTNL FALLS FAIR 10 6 84 CALM 29.95R  
DULUTH FAIR 21 16 81 NW5 29.93R WCI 15  
RED WING FAIR 16 14 93 CALM 29.98S  
REDWOOD FALLS CLEAR 23 20 88 NE3 29.98R  
MANKATO FAIR 21 20 96 N9 29.98S WCI 11  
WORTHINGTON CLEAR 21 20 96 N5 29.94F WCI 15  
FAIRMONT CLEAR 26 24 92 N6 29.96F WCI 19  

 
   
..SOUTHWEST WISCONSIN
 
 
 
CITY SKY/WX TMP DP RH WIND PRES REMARKS  
LA CROSSE FAIR 19 16 88 NW3 29.97S  
PRAIRIE DU CHI FAIR 24 22 92 CALM 29.96S  
BOSCOBEL FAIR 22 18 85 CALM 29.96S  
LONE ROCK FAIR 20 18 92 S3 29.95S  
PLATTEVILLE FAIR 28 27 95 N9 29.93S WCI 19  
FORT MC COY FAIR 14 13 95 CALM 29.98S  
CAMP DOUGLAS CLEAR 18 18 100 W5 29.95S WCI 11  
MAUSTON-NEW LI FAIR 26 23 89 NW5 29.95S FOG WCI 20  
VIROQUA FAIR 25 25 100 N6 29.93S WCI 18  
WIS DELLS FAIR 25 23 91 CALM 29.94S  

 
   
..ELSEWHERE IN WISCONSIN
 
 
 
CITY SKY/WX TMP DP RH WIND PRES REMARKS  
MILWAUKEE CLOUDY 32 23 69 CALM 29.93R  
MADISON MOCLDY 26 22 84 CALM 29.93S  
GREEN BAY FAIR 25 19 78 NW7 29.94S WCI 17  
EAU CLAIRE FAIR 20 16 84 CALM 29.97S  
BLACK RVR FLS FAIR 11 8 91 CALM 29.97S  
MEDFORD FAIR 17 16 95 CALM 29.93S  
WAUSAU FAIR 21 18 88 NW6 29.92S WCI 13  
WIS RAPIDS FAIR 18 15 88 CALM 29.96R  
MARSHFIELD FAIR 22 18 85 NW3 29.93R  
RICE LAKE FAIR 21 19 93 CALM 29.99S  

 
   
..NORTHEAST IOWA
 
 
 
CITY SKY/WX TMP DP RH WIND PRES REMARKS  
WATERLOO FAIR 27 23 85 N6 29.92F WCI 20  
DUBUQUE FAIR 28 25 88 NE12 29.91S WCI 18  
DECORAH FAIR 25 25 100 CALM 29.92S  
MASON CITY CLEAR 22 20 92 N10 29.93F WCI 11  
CHARLES CITY FAIR 23 23 100 NE9 29.92F WCI 13  
OELWEIN CLEAR 25 25 100 NE10 29.92S WCI 15  

 
   
..ELSEWHERE IN IOWA
 
 
 
CITY SKY/WX TMP DP RH WIND PRES REMARKS  
DES MOINES CLOUDY 32 25 75 NE9 29.89S WCI 24  
IOWA CITY FAIR 35 26 69 NE7 29.92S WCI 29  
FORT DODGE CLEAR 27 25 92 NE6 29.92S WCI 20  
MARSHALLTOWN CLEAR 29 26 89 NE9 29.90S WCI 20  
CEDAR RAPIDS FAIR 31 26 82 NE10 29.89F WCI 22  

 
   
..NORTHERN ILLINOIS
 
 
 
CITY SKY/WX TMP DP RH WIND PRES REMARKS  
CHICAGO-OHARE CLOUDY 37 26 64 NE8 29.92R WCI 31  
CHICAGO-MIDWAY CLOUDY 39 26 59 NE10 29.92R WCI 32  
MOLINE FAIR 36 26 67 E10 29.90F WCI 28  
ROCKFORD CLOUDY 33 26 75 N6 29.95R WCI 28  
PEORIA CLOUDY 39 34 82 NE7 29.88F WCI 34  

 
 
NOTE: "FAIR" INDICATES FEW OR NO CLOUDS BELOW 12,000 FEET WITH NO  
SIGNIFICANT WEATHER AND/OR OBSTRUCTIONS TO VISIBILITY. WIND  
SPEEDS ARE IN MILES-PER-HOUR.  
 
 
CLICK HERE TO GO TO PREVIOUS BULLETINS.

The Nexlab WI Page
The Nexlab IA Page
The Nexlab MN Page Main Text Page